FENGYUN 1C DEB, 32178

Orbit data source: Space-Track

FENGYUN 1C DEB, 32178 is space debris in SSO originally from a launch on Mon, 10 May 1999 UTC launched from the Taiyaun Space Center, China (TSC). Fengyun 1C debris stems from the Chinese weather satellite Fengyun-1C, which was intentionally destroyed by a Chinese anti-satellite missile in 2007. This event dramatically increased the amount of space debris, with thousands of trackable fragments posing hazards to satellites and human spaceflight. The Fengyun 1C debris cloud has become a focal point in discussions about space sustainability and the need for international regulations to prevent the creation of new debris.

Loading next visibility...
Identifier
32178, 1999-025CTY
Orbit
SSO
Country
Flag of CNCN / PRC
Related business
Manufacturer
Unknown
Mission
Spacecraft
Bus & Motor
Unknown
Mass
Unknown
Launch date (UTC)
1999-05-10 (27 years ago)
Launch vehicle
Unknown
Launch site
Taiyaun Space Center, China (TSC)
Object type
Payload
Rocket body
Debris
Shape & HBR
Unknown shape, 0.1 m
Radar Cross Section
Small (<0.1 m²)

Expand to show TLE details & history
Last TLE update: 18 hours ago

TLE from 18 hours ago
0 FENGYUN 1C DEB
1 32178U 99025CTY 25353.27484169  .00002036  00000-0  88752-3 0  9999
2 32178 100.3031 355.8088 0094455 305.4273  53.8108 14.23022810640962
Epoch: 2025-12-19T06:35Z
TLE epoch observation values (Epoch: 2025-12-19T06:35:46.322Z)
Latitude
0.00008°
Longitude
168.74744°
Altitude
778.307 km
Speed
7.485 km/s
True Right ascension
23h 43m 14s
True Declination
0° 00' 00"
Sunlit
Object was in daylight at epoch
Visualization orbit readout
Latitude
Unknown
Longitude
Unknown
Altitude
Unknown
Speed
Unknown
Apparent Right ascension
Unknown
Apparent Declination
Unknown
Sunlit
N/A
Visualization observer readout
Local Sidereal Time
23:33:47
Azimuth
Unknown
Elevation
Unknown
Doppler factor
Unknown
Orbital elements
Apogee altitude
880.303 km
Perigee altitude
744.467 km
Semi-major axis
7,190.522 km
Eccentricity
0.00945
Inclination
100.3031°
RAAN
355.8088°
Arg. of periapsis
305.4273°
True anomaly
54.69045°
Mean anomaly
53.8108°
Eccentric anomaly
54.25001°
Mean motion
3.55961 °/min
Orbital period
101.13 mins
BSTAR
0.00088752
Loading maneuver chart data...
Computing Atmospheric mass density...
Loading historical data...
Loading historical data...
Loading historical data...
Loading historical data...
Loading historical data...
Loading historical data...
Loading historical data...

Documentation

Showing up to 5 results
|